Location: NJAA Observatory
(40.6819°N, 74.8979°W)
Time: 08:17:52
(UTC-04:00)

Transit 2A Rocket - Visible Passes

Search period start: 30 June 2016 00:00
Search period end: 10 July 2016 00:00
Orbit: 584 x 920 km, 66.7° (Epoch: 29 June)

Date Brightness Start Highest point End Pass type
(mag) Time Alt. Az. Time Alt. Az. Time Alt. Az.
30 Jun 5.8 21:32:11 10° NW 21:38:10 58° WSW 21:43:49 10° SSE visible
01 Jul 7.6 22:34:40 10° WNW 22:37:40 14° W 22:40:35 10° SW visible
02 Jul 7.1 21:50:59 10° NW 21:55:45 25° WSW 22:00:17 10° SSW visible
03 Jul 6.4 21:08:04 10° NW 21:13:43 41° WSW 21:19:02 10° S visible
05 Jul 7.6 21:27:28 10° WNW 21:31:08 17° WSW 21:34:41 10° SW visible
08 Jul 8.1 21:04:59 10° W 21:06:28 11° W 21:07:54 10° WSW visible
